This is the latest recevied weather packets stored in our database for station/object N7SWJ. If no packets are shown the sender has not sent any weather packets the latest 10 day(s).
| Time | Temp. | Humidity | Pressure | Rain* | Wind** | Luminosity | Snow |
|---|---|---|---|---|---|---|---|
| 1778019521 | 2.22° C | 94% | 1015.3 hPa | 3.05 mm | - | 104 W/m² | - |
| 1778019218 | 1.67° C | 94% | 1015.5 hPa | 3.05 mm | - | 78 W/m² | - |
| 1778018915 | 2.22° C | 94% | 1015.7 hPa | 1.27 mm | - | 113 W/m² | - |
| 1778018612 | 2.22° C | 94% | 1015.4 hPa | 0 mm | - | 105 W/m² | - |
| 1778018310 | 2.22° C | 94% | 1015.2 hPa | 0 mm | - | 99 W/m² | - |
| 1778018008 | 2.22° C | 94% | 1015.3 hPa | 1.78 mm | - | 103 W/m² | - |
| 1778017706 | 2.22° C | 94% | 1015.3 hPa | 1.78 mm | - | 89 W/m² | - |
| 1778017403 | 2.22° C | 94% | 1015.1 hPa | 1.78 mm | - | 95 W/m² | - |
| 1778017100 | 2.78° C | 94% | 1015.3 hPa | 0 mm | - | 84 W/m² | - |
| 1778016798 | 2.78° C | 94% | 1015 hPa | 0 mm | - | 114 W/m² | - |
| 1778016493 | 2.78° C | 94% | 1015 hPa | 0 mm | - | 96 W/m² | - |
| 1778016191 | 2.78° C | 94% | 1015.4 hPa | 0 mm | - | 165 W/m² | - |
| 1778015887 | 2.78° C | 94% | 1015.3 hPa | 0 mm | - | 122 W/m² | - |
| 1778015585 | 2.22° C | 94% | 1015.4 hPa | 1.78 mm | - | 103 W/m² | - |
| 1778015281 | 2.78° C | 94% | 1015.7 hPa | 1.78 mm | - | 159 W/m² | - |
| 1778014978 | 2.78° C | 94% | 1015.2 hPa | 0 mm | - | 107 W/m² | - |
| 1778014675 | 2.78° C | 94% | 1015.5 hPa | 0 mm | - | 124 W/m² | - |
| 1778014373 | 2.78° C | 94% | 1015.5 hPa | 0 mm | - | 158 W/m² | - |
| 1778014069 | 2.78° C | 94% | 1015.5 hPa | 1.27 mm | - | 195 W/m² | - |
| 1778013768 | 2.78° C | 94% | 1015.8 hPa | 1.27 mm | - | 161 W/m² | - |
| 1778013464 | 2.78° C | 94% | 1016 hPa | 1.78 mm | - | 145 W/m² | - |
| 1778013161 | 2.78° C | 94% | 1016.1 hPa | 1.78 mm | - | 169 W/m² | - |
| 1778012857 | 2.78° C | 94% | 1016 hPa | 1.27 mm | - | 196 W/m² | - |
| 1778012553 | 2.78° C | 94% | 1016.2 hPa | 3.05 mm | - | 159 W/m² | - |
| 1778012250 | 2.78° C | 94% | 1015.9 hPa | 1.78 mm | - | 151 W/m² | - |
* Rain latest hour (hover to see other rain measurements)
** Current wind speed in m/s (hover to see current wind gust speed)